Regional Weather Roundup
Issued by NWS

Home | Current Version | Previous Version | Graphics & Text | Print | Product List | Glossary On
Versions: 1 2 3 4 5 6 7 8 9 10 11 12 13 14 15 16 17 18 19 20 21 22 23 24 25 26 27 28 29 30 31 32 33 34 35 36 37 38 39 40 41 42 43 44 45 46 47 48 49 50
000
ASUS43 KMKX 011720
RWRWI

WISCONSIN REGIONAL WEATHER ROUNDUP
NATIONAL WEATHER SERVICE MILWAUKEE/SULLIVAN WI
1100 AM CST SUN MAR 01 2015

NOTE: "FAIR" INDICATES FEW OR NO CLOUDS BELOW 12,000 FEET WITH NO
SIGNIFICANT WEATHER AND/OR OBSTRUCTIONS TO VISIBILITY.

WIZ001-002-006>008-014>016-023>028-011800-
NORTHWEST WISCONSIN

CITY           SKY/WX    TMP DP  RH WIND       PRES   REMARKS
SUPERIOR ARPT  SUNNY     21   8  56 W13       30.17S WCI   8
ASHLAND        FLURRIES  20  11  68 W13G23    30.16S WCI   7
HAYWARD        CLOUDY    18  10  71 SW10G20   30.15F HAZE    WCI   6
SIREN          PTSUNNY   21  10  64 W13       30.20R WCI   8
CUMBERLAND     FLURRIES  19  10  68 W14       30.19R WCI   6
RICE LAKE      LGT SNOW  19  13  76 SW9       30.21S WCI   9
CHETEK         LGT SNOW  18  13  79 SW7       30.21S WCI   9
LADYSMITH      LGT SNOW  19  13  79 SW9       30.19S WCI   7
EAU CLAIRE     CLOUDY    17  11  77 W13       30.24S HAZE    WCI   4
MENOMONIE      FLURRIES  21  13  70 SW16      30.25R WCI   7
NEW RICHMOND   MOSUNNY   21   9  58 W12       30.23S WCI  10
OSCEOLA        MOSUNNY   22   9  57 W13       30.27S WCI  10
$$

WIZ003>005-009-010-017-018-011800-
NORTH CENTRAL WISCONSIN

CITY           SKY/WX    TMP DP  RH WIND       PRES   REMARKS
MANITOWISH WTR LGT SNOW  15   9  78 SW10G16   30.11S WCI   2
ARBOR VITAE    LGT SNOW  17  10  76 SW8G18    30.12S WCI   6
WOODRUFF       LGT SNOW  17  10  76 SW8G18    30.12S WCI   6
RHINELANDER    LGT SNOW  16   9  74 W12G18    30.13F WCI   3
EAGLE RIVER    LGT SNOW  15   8  71 SW9       30.11S WCI   4
LAND O LAKES   LGT SNOW  18   9  69 SW10G17   30.11S WCI   6
PHILLIPS       LGT SNOW  15  10  78 SW9G16    30.14S WCI   3
TOMAHAWK       LGT SNOW  16   9  75 SW6       30.16F WCI   7
MEDFORD        LGT SNOW  15  10  81 SW13      30.17F WCI   1
MERRILL        LGT SNOW  16  10  77 SW9       30.19S WCI   4
$$

WIZ029-030-035-036-043>047-011800-
CENTRAL WISCONSIN

CITY           SKY/WX    TMP DP  RH WIND       PRES   REMARKS
WAUSAU         CLOUDY    15   9  76 SW9       30.20F HAZE    WCI   3
MOSINEE        FLURRIES  14  10  85 SW9       30.23S WCI   2
MARSHFIELD     LGT SNOW  16  11  80 W14       30.21F WCI   2
STEVENS POINT  CLOUDY    16   9  75 SW6       30.24F WCI   7
WAUPACA        MOSUNNY   26  13  59 SW7       30.26F WCI  18
WAUTOMA        MOSUNNY   25  14  62 SW7       30.27F WCI  17
WISC RAPIDS    CLOUDY    19  10  68 VRB7      30.26F WCI  10
CAMP DOUGLAS   PTSUNNY   23  16  74 SW7       30.26F WCI  15
$$

WIZ011>013-019>022-031-037>040-048>050-011800-
NORTHEAST WISCONSIN

CITY           SKY/WX    TMP DP  RH WIND       PRES   REMARKS
ANTIGO         LGT SNOW  15  10  80 SW9       30.17F WCI   3
SHAWANO        MOSUNNY   22  12  65 SW9       30.26S WCI  12
OCONTO         MOSUNNY   23  13  65 SW10      30.25F WCI  12
STURGEON BAY   MOSUNNY   23  12  63 SW14      30.25F WCI  11
GREEN BAY      MOSUNNY   23  14  68 SW9G18    30.26F WCI  13
MANITOWOC      SUNNY     26  14  60 W10       30.29F WCI  16
APPLETON       PTSUNNY   21  12  68 SW9       30.26F WCI  11
CLINTONVILLE   MOSUNNY   21  12  68 SW9       30.25F WCI  11
OSHKOSH        SUNNY     22  13  68 SW8       30.27F WCI  12
$$

WIZ032>034-041-042-053>061-011800-
SOUTHWEST WISCONSIN

CITY           SKY/WX    TMP DP  RH WIND       PRES   REMARKS
LA CROSSE      CLOUDY    21  14  74 W7        30.30S WCI  12
SPARTA         CLOUDY    19  13  77 W9        30.29F WCI   8
VIROQUA        CLOUDY    20  15  81 SW9       30.26S WCI   9
BOSCOBEL       SUNNY     23  13  65 SW10      30.33S WCI  12
PRAIRIE DU CHI CLOUDY    24  14  67 SW5       30.33S WCI  18
PLATTEVILLE    MOSUNNY   18  16  91 S8        30.32R WCI   8
$$

WIZ056-057-062-063-064-067-068-011800-
SOUTH CENTRAL WISCONSIN

CITY           SKY/WX    TMP DP  RH WIND       PRES   REMARKS
REEDSBURG      SUNNY     21  14  73 SW8       30.28F WCI  12
BARABOO/DELLS  SUNNY     21  13  71 SW9       30.27F WCI  11
LONE ROCK      FAIR      22  12  65 CALM      30.32F
MINERAL POINT  LGT SNOW  19  18  93 S3        30.30S
MADISON        FLURRIES  20  12  71 S7        30.30F WCI  11
MIDDLETON      MOSUNNY   23  13  65 S7        30.31F WCI  15
WATERTOWN      MOSUNNY   21  14  74 SW6       30.31S WCI  13
MONROE         MOSUNNY   21  19  93 W7        30.31S WCI  13
JANESVILLE     SUNNY     21  14  73 SW7       30.34S WCI  13
$$

WIZ051-052-058>065-066-070>072-011800-
SOUTHEAST WISCONSIN

CITY           SKY/WX    TMP DP  RH WIND       PRES   REMARKS
MILWAUKEE      PTSUNNY   22  13  68 SW10      30.33S WCI  11
WAUKESHA       PTSUNNY   16  12  86 W5        30.32S WCI   9
MILWAUKEE/TIMM MOSUNNY   21  12  68 SW6       30.33  WCI  14
RACINE         MOSUNNY   20  12  71 SW8       30.35S WCI  10
BURLINGTON     PTSUNNY   22  13  68 W6        30.33F WCI  14
KENOSHA        CLOUDY    20  15  81 SW9       30.33F WCI   9
FOND DU LAC    SUNNY     23  13  65 SW9       30.29F WCI  13
SHEBOYGAN      SUNNY     21  11  65 W8        30.29F WCI  11
WEST BEND      SUNNY     23  12  63 W7        30.29S WCI  15
JUNEAU         MOSUNNY   21  14  75 SW9       30.31S WCI  11
$$

LSZ147-162-011800-
LAKE SUPERIOR

STATION/POSITION TIME  TEMP    WIND        PRES    WAVE
                       AIR SEA DIR/SP/G            HT/PER
                 (UTC) (F)     (DEG/KT/KT) (MB)    (FT/S)
DEVILS ISLAND    1700   19     250/ 21/ 26 1021.5F
PORT WING        1640   19     250/ 11/ 17 1021.3S
SAXON HARBOR     1600   19     200/ 11/ 16 1021.3S
$$

LMZ867-665-643>646-011800-
LAKE MICHIGAN

STATION/POSITION TIME  TEMP    WIND        PRES    WAVE
                       AIR SEA DIR/SP/G            HT/PER
                 (UTC) (F)     (DEG/KT/KT) (MB)    (FT/S)
NORTHPORT PIER   1707   24     190/  6/ 16 1023.4F
SISTER BAY       1643   26     190/ 11/ 14   N/A
KEWAUNEE LAKESHO 1600   19     250/  7/ 12 1025.0F
SHEBOYGAN LAKESH 1700   21     230/  6/  8 1027.4F
PORT WASHINGTON  1600   21     260/  8/ 11 1027.4
MILWAUKEE LAKESH 1700   22     240/  5/  7   N/A
KENOSHA   LAKESH 1700   21     250/  4/  7 1027.8S
$$

TC  - TEMPERATURE IN CELSIUS
VSB - VISIBILITY IN STATUTE MILES
WCI - WIND CHILL INDEX
HX  - HEAT INDEX




USA.gov is the U.S. government's official web portal to all federal, state and local government web resources and services.